Seldovia, AK

9:09 AM AKDT on October 19, 2017 (GMT -0800)
Seldovia

Weather History for PASO - February, 2013

Change the Weather History Date:

Saturday, February 23, 2013

  Actual Average (PAHO) Record (PAHO)
Temperature  
Mean Temperature 30 °F -  
Max Temperature 34 °F 32 °F 46 °F (1943)
Min Temperature 26 °F 19 °F -1 °F (1971)
Degree Days  
Heating Degree Days 35    
Moisture  
Dew Point 28 °F    
Average Humidity 91    
Maximum Humidity 100    
Minimum Humidity 72    
Precipitation  
Precipitation 0.40 in - - ()
Sea Level Pressure  
Sea Level Pressure 29.16 in    
Wind  
Wind Speed 2 mph (South)    
Max Wind Speed 9 mph    
Max Gust Speed 17 mph    
Visibility 4 miles    
Events Fog , Snow    
Averages and records for this station are not official NWS values.
T = Trace of Precipitation, MM = Missing Value Source: NWS Daily Summary

Daily Weather History Graph

Daily Weather History Graph

Search for Another Location

Airport or City:

Trip Planner

Search our weather history database for the weather conditions in past years. The results will help you decide how hot, cold, wet, or windy it might be!

Date:

Astronomy

Feb. 23, 2013 Rise Set
Actual Time 8:19 AM AKST 6:21 PM AKST
Civil Twilight 7:37 AM AKST 7:03 PM AKST
Nautical Twilight 6:50 AM AKST 7:50 PM AKST
Astronomical Twilight 6:03 AM AKST 8:38 PM AKST
Moon 4:29 PM AKST (2/23) 7:05 AM AKST (2/23)
Length of Visible Light 11h 25m
Length of Day
10h 01m
Waxing Gibbous, 96% of the Moon is Illuminated
Feb 23
Waxing Gibbous
Feb 25
Full
Mar 4
Last Quarter
Mar 11
New
Mar 19
First Quarter

Hourly Weather History & Observations

Time (AKST) Temp. Windchill Dew Point Humidity Pressure Visibility Wind Dir Wind Speed Gust Speed Precip Events Conditions
12:53 AM 27.0 °F - 19.0 °F 72% 29.29 in 10.0 mi Calm Calm - N/A   Overcast
1:53 AM 27.0 °F - 19.9 °F 75% 29.25 in 10.0 mi Calm Calm - N/A   Overcast
3:53 AM 26.1 °F - 21.9 °F 84% 29.15 in 10.0 mi Calm Calm - N/A   Overcast
4:53 AM 26.1 °F 20.5 °F 21.9 °F 84% 29.11 in 10.0 mi South 4.6 mph - N/A   Overcast
5:53 AM 26.1 °F - 23.0 °F 88% 29.08 in 10.0 mi Calm Calm - N/A   Overcast
6:53 AM 27.0 °F - 24.1 °F 89% 29.06 in 7.0 mi Calm Calm - 0.00 in Snow Light Snow
7:53 AM 28.0 °F - 25.0 °F 88% 29.05 in 4.0 mi Calm Calm - 0.00 in Snow Light Snow
8:53 AM 28.0 °F - 25.0 °F 88% 29.05 in 10.0 mi Calm Calm - 0.00 in   Mostly Cloudy
9:02 AM 28.4 °F - 24.8 °F 86% 29.04 in 4.0 mi Calm Calm - 0.00 in Snow Light Snow
9:15 AM 28.4 °F - 24.8 °F 86% 29.05 in 9.0 mi Calm Calm - 0.00 in   Mostly Cloudy
9:43 AM 28.4 °F - 26.6 °F 93% 29.06 in 2.5 mi Calm Calm - 0.00 in Snow Light Snow
9:49 AM 30.2 °F - 26.6 °F 86% 29.06 in 0.8 mi Calm Calm - 0.01 in Snow Light Snow
9:53 AM 30.0 °F - 28.0 °F 92% 29.06 in 0.5 mi Calm Calm - 0.01 in Fog , Snow Snow
10:05 AM 28.4 °F - 26.6 °F 93% 29.06 in 0.5 mi Calm Calm - 0.01 in Fog , Snow Snow
10:18 AM 28.4 °F - 26.6 °F 93% 29.07 in 0.2 mi Calm Calm - 0.03 in Fog , Snow Heavy Snow
10:53 AM 30.0 °F - 28.9 °F 96% 29.07 in 0.2 mi Calm Calm - 0.08 in Fog , Snow Heavy Snow
11:10 AM 30.2 °F - 28.4 °F 93% 29.07 in 0.8 mi Calm Calm - 0.01 in Snow Light Snow
11:39 AM 32.0 °F 25.6 °F 30.2 °F 93% 29.08 in 0.2 mi Variable 6.9 mph - 0.04 in Fog , Snow Heavy Snow
11:53 AM 32.0 °F 26.4 °F 30.0 °F 92% 29.08 in 0.2 mi South 5.8 mph - 0.06 in Fog , Snow Snow
12:00 PM 32.0 °F 26.4 °F 30.2 °F 93% 29.08 in 0.5 mi SSW 5.8 mph - 0.01 in Fog , Snow Snow
12:10 PM 33.8 °F 27.7 °F 30.2 °F 87% 29.08 in 0.2 mi South 6.9 mph - 0.03 in Fog , Snow Snow
12:16 PM 33.8 °F 27.7 °F 30.2 °F 87% 29.08 in 0.5 mi South 6.9 mph - 0.03 in Fog , Snow Snow
12:25 PM 33.8 °F 26.4 °F 30.2 °F 87% 29.09 in 0.2 mi South 9.2 mph - 0.05 in Fog , Snow Heavy Snow
12:40 PM 33.8 °F 27.0 °F 30.2 °F 87% 29.09 in 0.5 mi SSE 8.1 mph - 0.05 in Fog , Snow Snow
12:49 PM 33.8 °F 27.7 °F 30.2 °F 87% 29.09 in 2.0 mi South 6.9 mph - 0.06 in Snow Light Snow
12:51 PM 33.8 °F 26.4 °F 30.2 °F 87% 29.09 in 3.0 mi South 9.2 mph - 0.06 in Snow Light Snow
12:53 PM 34.0 °F 26.6 °F 30.0 °F 85% 29.09 in 4.0 mi South 9.2 mph - 0.06 in Snow Light Snow
12:59 PM 33.8 °F 29.6 °F 30.2 °F 87% 29.09 in 4.0 mi Variable 4.6 mph - 0.01 in Snow Light Snow
1:53 PM 34.0 °F 28.0 °F 30.0 °F 85% 29.11 in 1.2 mi Variable 6.9 mph - 0.01 in Snow Light Snow
2:09 PM 33.8 °F 27.7 °F 30.2 °F 87% 29.11 in 2.0 mi South 6.9 mph 17.3 mph 0.01 in Snow Light Snow
2:16 PM 33.8 °F 27.7 °F 30.2 °F 87% 29.11 in 1.2 mi South 6.9 mph - 0.02 in Snow Light Snow
2:53 PM 34.0 °F 27.2 °F 30.0 °F 85% 29.12 in 1.2 mi South 8.1 mph - 0.05 in Snow Light Snow
3:33 PM 33.8 °F 27.0 °F 30.2 °F 87% 29.13 in 2.5 mi South 8.1 mph - 0.01 in   Overcast
3:50 PM 33.8 °F - 30.2 °F 87% 29.14 in 1.0 mi Calm Calm - 0.01 in Snow Light Snow
3:53 PM 33.1 °F 28.7 °F 30.9 °F 92% 29.15 in 1.0 mi West 4.6 mph - 0.01 in Snow Light Snow
4:15 PM 32.0 °F - 30.2 °F 93% 29.16 in 0.5 mi Calm Calm - 0.02 in Fog , Snow Snow
4:25 PM 32.0 °F - 30.2 °F 93% 29.16 in 0.2 mi Calm Calm - 0.03 in Fog , Snow Snow
4:42 PM 32.0 °F - 30.2 °F 93% 29.17 in 0.5 mi Calm Calm - 0.05 in Fog , Snow Snow
4:53 PM 32.0 °F - 30.9 °F 96% 29.18 in 0.8 mi Calm Calm - 0.05 in Snow Light Snow
5:01 PM 32.0 °F - 30.2 °F 93% 29.18 in 0.5 mi Calm Calm - 0.01 in Fog , Snow Snow
5:09 PM 32.0 °F - 30.2 °F 93% 29.18 in 0.2 mi Calm Calm - 0.02 in Fog , Snow Snow
5:18 PM 32.0 °F - 30.2 °F 93% 29.19 in 0.5 mi Calm Calm - 0.03 in Fog , Snow Light Snow
5:28 PM 32.0 °F - 30.2 °F 93% 29.19 in 1.8 mi Calm Calm - 0.03 in Snow Light Snow
5:34 PM 32.0 °F - 30.2 °F 93% 29.19 in 3.0 mi Calm Calm - 0.03 in   Overcast
5:48 PM 32.0 °F - 30.2 °F 93% 29.20 in 1.8 mi Calm Calm - 0.03 in Snow Light Snow
5:53 PM 32.0 °F - 28.9 °F 88% 29.20 in 0.8 mi Calm Calm - 0.03 in Snow Light Snow
5:59 PM 32.0 °F 28.7 °F 28.4 °F 87% 29.20 in 0.2 mi North 3.5 mph - 0.01 in Fog , Snow Snow
6:07 PM 30.2 °F 25.4 °F 30.2 °F 100% 29.20 in 0.5 mi North 4.6 mph - 0.02 in Fog , Snow Snow
6:17 PM 30.2 °F - 28.4 °F 93% 29.20 in 2.0 mi Calm Calm - 0.02 in Snow Light Snow
6:27 PM 30.2 °F - 28.4 °F 93% 29.21 in 6.0 mi Calm Calm - 0.02 in   Overcast
6:51 PM 30.2 °F - 28.4 °F 93% 29.22 in 10.0 mi Calm Calm - 0.02 in   Overcast
6:53 PM 30.0 °F - 28.0 °F 92% 29.22 in 10.0 mi Calm Calm - 0.02 in   Overcast
7:53 PM 28.0 °F - 27.0 °F 96% 29.24 in 10.0 mi Calm Calm - N/A   Mostly Cloudy
8:12 PM 28.4 °F - 26.6 °F 93% 29.24 in 8.0 mi Calm Calm - N/A   Scattered Clouds
8:23 PM 28.4 °F - 26.6 °F 93% 29.24 in 2.0 mi Calm Calm - 0.00 in Snow Light Snow
8:32 PM 28.4 °F - 26.6 °F 93% 29.25 in 9.0 mi Calm Calm - 0.00 in   Scattered Clouds
8:48 PM 26.6 °F 22.6 °F 26.6 °F 100% 29.25 in 7.0 mi North 3.5 mph - 0.00 in   Scattered Clouds
8:53 PM 28.0 °F 24.2 °F 26.1 °F 92% 29.25 in 8.0 mi North 3.5 mph - 0.00 in   Partly Cloudy
9:53 PM 28.0 °F - 27.0 °F 96% 29.26 in 10.0 mi Calm Calm - N/A   Overcast
10:37 PM 28.4 °F - 28.4 °F 100% 29.27 in 2.0 mi Calm Calm - 0.00 in Snow Light Snow
10:44 PM 28.4 °F - 28.4 °F 100% 29.27 in 1.0 mi Calm Calm - 0.01 in Snow Light Snow
10:53 PM 28.9 °F - 28.0 °F 96% 29.27 in 0.8 mi Calm Calm - 0.02 in Snow Light Snow
11:02 PM 28.4 °F - 28.4 °F 100% 29.27 in 1.8 mi Calm Calm - 0.00 in Snow Light Snow
11:06 PM 28.4 °F - 28.4 °F 100% 29.27 in 3.0 mi Calm Calm - 0.00 in Snow Light Snow
11:24 PM 28.4 °F - 28.4 °F 100% 29.27 in 9.0 mi Calm Calm - 0.00 in   Overcast
11:53 PM 28.9 °F - 28.0 °F 96% 29.28 in 10.0 mi Calm Calm - 0.00 in   Overcast